Location: Middle Street
(51.7167°N, 0.0333°E)
Time: 02:25:48
(UTC+00:00)

Okean 1-7 Rocket - Pass Details

Date: 20 January 2021
Orbit: 615 x 650 km, 82.5° (Epoch: 28 February)

Event Time Altitude Azimuth Distance (km) Brightness Sun altitude
Rises 17:35:40 0° 158° (SSE) 2,946 7.0 -10.3°
Reaches altitude 10° 17:38:08 10° 148° (SSE) 2,045 6.1 -10.6°
Maximum altitude 17:42:01 29° 89° (E) 1,201 4.5 -11.2°
Drops below altitude 10° 17:45:57 10° 30° (NNE) 2,067 5.8 -11.8°
Enters shadow 17:47:07 - 24° (NNE) 2,486 6.3 -12.0°
